Location: Newark
(11.2914°S, 14.4718°E)
Time: 14:44:48
(UTC+00:00)

Vanguard 2 - Pass Details

Date: 21 September 2019
Orbit: 554 x 2937 km, 32.9° (Epoch: 21 October)

Event Time Altitude Azimuth Distance (km) Brightness Sun altitude
Rises 18:31:05 0° 230° (SW) 5,116 12.6 -23.6°
Reaches altitude 10° 18:34:17 10° 224° (SW) 4,418 12.0 -24.4°
Maximum altitude 18:46:49 46° 153° (SSE) 3,246 10.4 -27.4°
Enters shadow 18:52:54 36° 112° (ESE) 3,862 10.5 -28.9°
